GFSSW_250_rhum_132.txt.gz
RH
79 58 44 66 100 81 68 69 76 68 58 90 91 80 90 98 97 98 84 81 94 46 42 44 40 39 44 43 38 38 34 38 51 58 51 85 66 62 62 83 77 53 50 66 60
51 53 46 41 80 78 64 57 73 66 71 95 99 71 62 82 100 100 94 86 86 86 48 42 38 37 38 45 53 55 53 54 45 51 54 52 56 52 44 48 58 78 99 91 90
70 61 39 46 55 62 74 80 100 100 89 92 76 56 63 99 100 95 100 94 82 86 77 62 53 51 49 55 58 53 54 53 51 50 48 44 48 55 58 58 62 76 68 46 47
95 89 94 81 78 86 64 69 88 91 98 85 67 58 84 88 100 74 97 100 96 91 93 95 84 80 65 56 54 47 52 43 45 45 43 50 43 46 39 49 44 27 33 48 63
100 100 100 100 96 83 74 91 74 98 97 100 97 82 66 76 97 88 100 100 100 99 98 99 84 82 78 79 76 74 79 76 68 80 59 47 42 32 34 30 28 33 34 36 33
100 100 100 100 100 100 84 100 100 100 100 100 100 99 95 78 84 78 85 100 100 100 100 100 100 98 88 88 76 83 87 81 70 66 60 48 49 48 44 32 32 32 31 29 28
100 100 100 100 100 100 100 100 100 100 100 100 100 100 92 84 88 83 73 100 100 100 100 100 100 99 98 96 99 93 81 80 81 77 65 56 53 48 48 42 38 38 36 33 36
100 100 100 100 100 100 100 100 100 100 100 100 100 100 100 87 77 75 84 80 96 100 100 100 100 100 100 100 100 100 98 88 72 84 76 64 64 61 59 56 53 48 42 38 52
59 100 100 100 100 100 96 85 100 100 100 100 100 100 100 100 98 92 89 92 82 100 100 100 100 94 93 99 100 100 87 78 79 75 69 66 59 53 51 47 44 39 38 42 46
53 82 88 100 100 100 100 95 78 100 100 100 100 100 100 100 100 100 100 95 99 90 88 97 100 100 100 99 99 94 87 81 72 63 56 50 48 46 43 38 37 35 34 34 37
48 50 62 81 100 100 100 100 100 90 92 100 100 100 100 100 100 100 91 61 68 71 78 76 69 69 66 72 76 82 74 66 58 55 55 47 39 35 35 32 30 32 33 32 38
90 85 77 90 98 100 100 100 100 85 97 87 100 100 100 100 100 100 95 80 69 54 59 59 49 48 47 41 40 37 35 36 35 37 36 35 30 29 31 29 28 29 31 31 33
97 100 100 100 100 100 94 100 100 93 100 100 91 92 90 86 91 94 100 100 80 74 70 59 57 60 56 47 39 40 40 42 36 35 30 28 28 29 29 29 30 26 24 23 20
100 100 100 96 100 100 100 100 100 100 100 96 87 82 97 94 78 88 76 76 71 71 70 68 64 63 61 56 48 55 47 42 36 27 27 25 23 29 29 27 21 15 13 10 9
100 100 100 100 100 100 100 100 100 100 96 84 100 100 100 96 82 75 59 69 73 61 56 56 54 50 50 48 44 44 44 44 35 28 25 23 25 27 20 14 10 10 8 7 7
100 100 100 100 100 100 100 100 100 100 100 100 93 98 98 97 86 100 91 95 98 92 73 62 57 52 54 50 47 52 47 39 38 32 37 36 26 17 12 10 9 8 7 5 5
96 96 100 100 100 100 94 100 100 100 100 100 98 95 99 94 92 90 94 90 77 75 77 74 62 65 59 59 60 55 50 40 37 36 31 25 18 14 12 9 7 7 6 5 4
53 58 80 99 100 100 100 97 100 100 100 100 100 100 95 99 100 98 83 87 94 87 84 82 80 76 70 61 63 56 44 34 30 30 25 22 16 13 10 9 7 6 4 4 3
19 28 41 60 94 100 100 76 90 100 100 100 100 100 93 82 93 95 68 74 97 88 80 81 82 78 70 62 55 42 34 28 27 26 20 18 13 10 10 8 6 5 4 4 4
11 15 20 32 46 70 68 71 96 100 100 100 100 100 100 93 81 70 68 94 86 94 97 91 85 73 66 57 48 41 30 30 25 19 16 15 11 10 8 7 8 8 6 5 5
10 12 16 22 30 40 55 77 100 97 100 100 100 100 100 79 82 88 98 95 98 94 93 88 74 67 62 50 42 38 31 24 20 20 20 13 10 10 14 14 16 11 9 7 7
12 9 14 23 32 39 52 70 98 96 98 99 92 92 92 94 94 100 100 94 87 92 87 83 87 77 64 59 37 35 27 26 26 23 15 12 10 14 18 23 27 22 24 14 29
21 18 20 26 29 32 60 77 90 96 77 86 100 100 99 99 100 100 100 88 92 89 94 100 98 81 72 42 37 35 33 29 28 17 13 13 17 24 22 41 39 28 42 31 86
46 31 24 23 34 44 58 75 87 91 95 96 100 99 100 100 100 96 95 90 97 100 100 99 90 83 59 42 38 35 31 31 22 16 18 28 28 25 20 39 53 49 41 53 78
83 79 90 79 76 83 78 76 85 87 87 80 90 99 100 100 90 94 84 100 100 100 96 88 100 70 51 47 36 35 29 27 20 16 22 36 42 38 26 27 44 75 64 68 66
80 100 90 94 92 93 96 100 100 100 97 100 100 100 100 86 84 93 100 100 100 99 100 100 84 61 53 42 34 33 26 23 19 16 19 45 69 47 31 27 43 79 72 80 74
97 93 88 94 95 93 99 100 100 100 100 100 100 100 96 99 100 100 100 100 100 100 100 87 68 56 44 42 36 28 22 21 19 18 23 55 69 54 34 33 40 69 99 88 100

GFSSW_250_rhum_135.txt.gz
RH
100 71 56 72 56 70 88 56 36 23 26 36 64 68 46 50 44 58 100 86 73 88 97 88 85 84 45 56 57 45 46 83 76 63 65 66 70 62 63 64 46 44 45 44 64
66 85 74 62 69 56 53 41 31 31 24 27 41 49 50 70 56 61 91 76 63 98 100 100 91 96 65 42 44 43 41 48 51 46 45 50 56 54 45 47 47 39 33 35 37
80 91 100 88 92 83 65 58 53 38 37 32 31 41 52 68 76 62 67 51 88 100 100 89 87 92 96 77 46 56 40 41 50 60 60 57 63 78 67 58 63 50 45 46 45
99 83 94 98 89 83 87 79 80 64 53 42 44 46 69 67 54 62 61 59 69 88 95 83 100 99 94 92 67 60 54 54 58 59 64 55 58 69 69 88 75 54 64 57 51
74 73 64 74 70 70 87 100 97 100 100 78 64 69 61 53 70 67 62 64 84 93 86 96 100 100 100 96 71 68 73 58 56 54 58 54 52 49 59 58 64 80 68 54 42
74 67 72 62 57 56 66 98 100 86 93 88 85 68 58 63 71 98 99 77 84 99 91 91 87 97 83 74 75 68 59 64 72 62 57 54 72 73 76 78 82 79 64 63 60
76 68 66 66 66 67 100 100 100 100 100 100 100 98 100 100 100 100 100 94 96 100 100 99 100 100 100 100 100 88 73 71 64 89 100 100 100 97 86 96 95 84 72 63 58
88 78 74 66 70 65 93 100 98 100 100 100 100 100 100 100 92 92 100 100 89 91 89 85 83 91 100 100 100 100 100 100 98 99 84 86 94 100 88 91 90 92 85 73 68
78 67 72 69 60 58 64 81 92 100 100 100 100 100 100 100 100 100 100 100 100 99 85 85 95 92 91 99 100 100 100 92 98 99 100 100 99 98 92 86 85 93 94 91 81
95 75 54 50 48 58 51 60 58 94 100 100 100 99 100 100 100 100 100 100 100 100 100 96 82 84 92 96 96 94 76 95 98 70 74 93 86 80 75 77 72 68 64 63 63
100 97 54 43 44 55 79 47 58 65 99 100 100 100 82 92 100 100 100 100 100 100 100 100 100 96 97 74 76 75 75 73 62 66 65 64 61 64 70 64 60 53 52 50 47
90 91 74 58 68 65 78 71 75 62 76 100 100 100 94 77 76 100 100 100 100 100 100 100 96 87 78 72 60 56 61 44 46 36 34 34 35 33 34 37 37 36 33 32 32
100 100 88 97 100 91 89 100 98 100 86 78 100 100 100 100 81 86 93 100 100 100 100 100 92 96 94 88 73 66 58 54 47 41 39 33 34 37 32 31 32 29 26 24 24
100 100 95 100 100 100 100 100 100 100 100 86 86 100 100 100 100 98 81 77 73 75 76 82 77 73 66 61 60 58 51 43 41 38 36 34 27 30 28 29 25 21 19 20 21
100 100 100 100 100 100 99 100 100 100 100 100 89 88 100 100 100 100 96 88 89 85 80 73 68 70 57 45 41 44 47 44 40 36 31 31 26 30 26 26 21 19 17 15 15
100 100 100 100 100 100 100 100 100 100 100 100 100 100 98 100 100 100 100 100 100 97 89 82 84 75 63 59 57 50 41 39 38 31 31 26 26 23 24 21 17 15 14 14 12
100 100 100 100 100 100 100 100 100 100 100 100 100 97 96 100 100 100 100 100 97 89 86 87 74 76 67 62 60 56 52 44 39 36 39 35 28 25 25 17 14 15 14 12 12
45 87 100 100 100 100 100 100 100 100 100 100 100 100 100 91 99 100 100 100 100 100 99 88 87 73 73 70 65 52 50 50 47 45 40 36 30 25 20 15 16 13 10 10 10
16 23 51 54 78 95 100 100 97 100 100 100 100 100 100 100 99 96 100 100 100 100 97 86 68 81 71 62 59 60 62 58 51 43 36 34 26 21 16 14 12 10 10 11 11
12 10 10 17 44 79 81 83 94 100 100 100 100 69 77 93 100 100 99 100 100 100 100 95 89 86 85 70 66 68 65 56 50 40 35 30 25 19 15 13 11 11 18 20 14
10 10 12 13 20 32 47 77 89 100 100 100 100 86 97 100 100 100 97 92 91 92 92 94 80 79 77 80 69 70 62 55 46 38 32 27 21 16 13 14 12 20 30 29 19
11 9 12 12 12 14 22 54 77 89 100 92 98 94 92 100 100 100 100 100 100 100 95 81 81 82 79 72 73 68 60 52 44 38 30 25 19 19 14 15 13 41 51 29 32
14 15 14 13 12 14 19 24 50 64 96 100 100 100 84 92 99 99 100 100 100 100 97 97 83 79 79 78 71 71 59 53 39 30 26 24 25 21 15 19 27 57 59 43 32
20 17 15 13 12 13 16 20 34 57 77 97 97 75 60 72 74 97 100 100 100 100 99 99 84 91 96 82 78 65 63 44 35 27 26 25 25 18 15 31 42 63 66 61 32
62 62 47 38 23 24 20 27 32 40 53 56 65 75 80 92 91 94 100 100 100 100 96 96 99 98 94 93 80 66 43 33 29 25 26 26 23 16 19 39 47 47 92 98 52
53 67 63 58 63 44 53 53 46 55 61 64 75 79 88 92 96 100 100 97 100 100 100 97 90 95 100 87 72 57 40 33 28 26 26 24 20 20 26 41 49 52 63 94 70
74 82 97 94 100 97 99 94 89 76 100 93 80 83 94 97 100 100 100 100 100 97 94 86 100 100 92 89 69 43 36 31 30 26 22 20 18 31 38 48 56 63 57 92 79

GFSSW_250_rhum_138.txt.gz
RH
97 56 66 93 100 100 91 80 56 47 53 67 45 52 27 25 25 23 28 38 47 53 57 60 59 70 85 91 96 75 72 55 85 69 51 75 100 99 78 73 72 65 63 68 62
86 81 55 68 98 98 100 79 38 37 48 43 57 47 32 35 35 26 27 40 42 42 62 59 67 86 100 100 100 84 82 54 43 48 50 51 68 92 69 53 48 43 37 43 52
100 99 76 46 76 62 60 58 44 50 77 76 76 53 52 46 44 32 35 40 43 52 47 49 64 59 100 87 71 88 98 66 53 39 48 47 47 57 51 54 62 60 55 49 54
100 96 91 89 55 38 47 64 68 61 59 67 61 53 44 48 41 55 46 46 52 44 41 37 59 62 59 76 97 100 100 91 68 54 46 44 45 46 60 66 68 65 70 60 51
100 100 98 89 97 88 91 96 81 48 50 53 39 39 45 49 62 81 66 48 49 42 39 35 48 64 71 87 100 100 100 100 96 76 55 49 56 56 66 58 58 74 62 54 47
93 100 100 98 99 89 85 74 63 54 37 42 45 60 70 40 62 86 85 64 54 50 40 53 60 88 77 74 77 81 84 89 73 64 75 76 61 73 73 68 70 79 64 54 61
100 93 81 94 86 92 92 80 72 60 63 62 63 97 99 54 69 85 90 80 66 54 57 92 95 61 51 59 67 66 99 100 99 87 98 71 83 90 56 68 99 99 99 90 91
82 98 92 98 56 67 90 95 83 81 70 66 66 88 84 99 100 100 100 100 100 100 79 86 94 90 74 55 97 100 100 100 100 100 100 100 100 100 83 61 73 97 100 90 90
67 74 88 88 96 74 59 67 86 78 72 72 64 93 88 94 91 99 97 100 100 100 100 100 100 100 99 79 62 55 61 58 98 100 100 100 100 100 100 100 100 94 100 100 100
63 68 91 94 100 100 95 77 72 83 70 73 65 66 73 83 90 100 100 98 97 98 100 100 100 100 100 100 100 92 67 60 56 49 46 58 89 100 99 85 70 72 79 71 80
68 68 75 100 100 100 100 100 84 69 83 76 51 54 61 58 61 84 100 100 100 100 100 100 100 100 100 100 100 100 100 100 99 80 88 79 76 64 43 47 52 66 73 60 60
76 98 90 100 100 100 100 100 84 65 94 78 52 50 49 53 58 76 100 100 100 100 100 100 100 100 100 100 100 100 99 98 97 92 69 68 91 62 47 32 30 33 35 33 31
100 96 100 100 100 100 100 100 99 95 91 77 69 51 70 52 53 68 100 100 100 98 80 81 95 99 100 100 100 92 87 79 88 98 89 83 80 54 44 32 28 29 28 26 24
100 100 100 100 100 100 100 100 100 94 100 100 84 93 78 70 54 67 100 100 100 100 100 85 72 90 100 95 92 86 85 90 78 62 56 50 46 48 32 28 30 29 24 21 20
100 100 100 100 100 100 100 100 100 100 100 95 89 100 100 99 94 75 87 100 100 100 100 100 100 100 80 83 58 73 69 64 57 59 46 46 39 35 33 35 32 25 22 18 15
86 100 100 100 100 100 100 100 100 100 100 100 100 100 100 99 100 96 100 90 92 100 100 100 100 100 98 90 86 92 86 69 61 60 55 45 40 32 34 33 30 29 22 17 17
66 67 85 100 100 100 100 100 100 100 94 100 100 96 100 100 98 75 96 100 100 100 100 100 100 100 100 97 93 86 84 77 72 63 60 45 35 31 30 27 27 25 23 21 20
38 46 74 82 99 100 100 100 100 100 96 100 100 100 100 100 100 100 78 100 100 94 96 92 94 94 97 96 96 91 84 68 64 62 50 52 42 38 37 28 28 24 19 17 16
14 13 22 35 54 70 83 93 95 100 99 100 100 100 100 90 100 100 100 98 81 100 100 81 82 92 100 99 98 85 71 76 64 55 49 55 45 46 42 34 29 24 20 16 14
14 15 14 17 22 30 42 36 64 89 100 98 100 100 100 100 100 100 100 100 100 100 100 100 94 87 100 100 90 70 66 68 65 55 55 49 44 43 36 36 31 20 19 16 13
11 11 12 13 12 11 11 17 30 56 99 100 100 100 100 100 100 100 100 100 100 89 100 100 80 75 80 77 77 71 64 65 59 53 48 51 53 39 37 31 24 18 21 16 13
12 9 13 14 13 11 13 21 18 21 41 84 96 100 100 100 98 96 100 100 91 100 100 100 100 97 85 78 74 79 77 74 66 62 56 52 44 44 38 30 23 22 20 18 20
12 13 13 12 9 11 18 17 18 18 22 37 87 100 100 100 100 100 100 100 100 98 96 100 98 95 96 82 88 93 83 75 66 61 70 60 42 40 34 25 23 24 18 20 29
13 15 16 17 18 17 19 18 17 16 20 28 51 98 100 100 100 99 100 98 84 91 98 100 100 100 100 99 93 98 90 85 74 75 68 47 41 31 26 24 23 22 18 29 44
18 19 22 19 18 21 19 18 22 18 17 38 77 90 100 100 100 100 100 100 100 97 95 98 82 90 100 95 96 99 95 77 74 66 50 36 33 27 24 24 19 18 19 44 67
37 42 46 35 38 21 23 24 22 22 23 23 37 92 100 100 100 100 100 100 99 95 89 83 97 100 95 100 100 98 92 82 92 67 41 38 32 26 25 20 18 16 24 60 95
35 55 69 62 55 49 43 46 34 34 32 31 44 45 50 64 80 90 96 89 96 88 93 100 97 100 100 100 97 90 100 94 72 41 36 33 29 28 21 21 19 15 23 52 82

GFSSW_250_rhum_141.txt.gz
RH
100 100 100 100 99 95 92 81 64 50 100 100 87 56 44 36 62 58 39 34 28 30 27 33 30 40 40 43 50 47 68 99 100 88 81 80 55 39 58 57 66 90 59 76 78
100 100 100 100 97 82 85 84 51 52 54 100 100 79 60 31 26 35 30 41 41 37 27 30 38 39 46 45 36 48 93 100 96 96 97 100 66 41 52 48 48 50 78 63 58
100 100 99 91 99 100 100 77 63 47 43 51 71 61 51 26 28 43 44 52 55 34 25 29 38 46 42 40 33 43 94 100 76 75 90 100 98 70 55 65 43 39 42 69 51
100 100 100 100 100 100 100 100 72 72 48 40 45 50 33 35 42 57 59 50 35 24 27 27 45 53 47 39 34 40 65 68 70 86 100 100 100 100 88 65 55 42 42 47 43
100 100 100 100 100 98 100 100 91 82 89 82 56 41 61 69 68 43 44 27 30 23 28 28 52 55 44 44 32 37 56 86 71 87 87 100 100 100 99 68 64 70 53 49 52
100 100 100 100 100 100 96 100 76 67 83 84 77 66 59 69 47 37 35 34 36 34 30 32 43 50 48 36 29 68 85 84 77 71 81 94 100 100 98 96 97 95 60 47 50
100 100 100 100 92 92 88 83 83 93 95 89 75 65 45 55 48 48 45 48 47 48 37 47 46 54 53 47 42 77 94 83 72 59 56 78 100 95 96 93 99 66 57 72 96
100 100 100 100 99 96 88 80 70 64 64 75 76 82 71 50 55 60 49 48 61 72 82 64 60 64 74 66 54 72 81 71 72 52 66 87 99 100 99 98 99 100 100 100 100
100 100 100 100 100 100 100 88 81 70 58 52 63 66 68 70 65 77 67 74 76 94 89 95 100 100 77 72 100 100 100 100 100 82 50 44 79 86 98 96 98 100 100 100 100
100 100 84 76 83 89 93 94 80 73 70 63 65 60 52 60 56 60 65 71 73 88 75 70 86 100 100 100 100 100 100 100 100 100 92 79 77 61 53 58 55 53 52 51 57
75 82 71 66 56 58 63 82 87 80 57 73 58 90 100 88 60 46 41 52 65 65 77 100 100 95 90 100 100 100 100 100 100 100 100 100 100 84 86 93 88 98 83 56 55
51 50 53 54 55 56 59 58 75 96 99 96 94 86 86 79 99 78 66 52 52 52 66 72 87 100 100 100 100 100 100 100 100 100 100 100 100 100 99 89 96 91 76 80 74
44 55 58 61 51 55 69 67 86 76 86 94 100 93 100 87 99 100 84 60 58 52 43 53 66 95 100 100 100 100 100 100 100 100 100 100 100 98 87 72 82 78 71 59 44
60 63 56 80 57 78 80 91 100 90 72 76 100 100 100 100 89 100 95 91 79 66 59 53 66 75 100 100 100 100 100 100 100 100 100 100 95 73 65 50 53 48 42 42 38
100 100 97 100 83 100 100 100 100 100 100 100 82 100 100 96 98 98 90 100 87 97 78 62 66 88 100 100 100 100 100 100 100 91 71 67 70 65 66 44 43 42 38 38 32
100 100 99 100 100 100 100 100 100 100 98 81 98 100 100 100 100 97 84 90 97 96 98 78 72 98 100 100 100 100 100 100 100 100 100 100 89 56 46 56 50 50 49 40 37
78 72 98 86 96 100 100 100 100 100 94 96 99 100 100 100 96 90 75 96 100 79 100 100 78 91 100 100 100 100 100 100 100 87 95 81 66 54 53 50 48 44 40 35 33
52 40 46 49 57 84 92 85 99 86 100 100 100 98 99 100 100 99 98 96 100 99 100 100 100 69 83 100 100 100 100 100 96 87 77 68 56 51 42 40 39 36 35 35 33
37 38 31 45 60 73 55 47 59 82 95 100 93 89 100 100 99 100 87 100 100 100 100 90 95 83 59 81 98 77 68 68 75 72 75 61 51 46 49 48 45 38 36 30 33
17 21 20 20 20 28 26 29 29 53 77 80 65 56 96 100 100 100 100 100 100 100 100 100 95 100 100 100 90 80 86 79 75 70 52 46 48 50 53 45 41 36 31 34 34
11 8 10 11 12 12 10 10 13 17 20 27 30 37 60 100 100 100 100 100 94 100 100 100 97 73 79 96 93 85 100 92 70 78 74 59 62 56 51 51 46 39 38 34 27
11 9 12 10 9 8 8 12 11 11 12 12 14 16 27 57 91 100 100 100 100 100 100 100 100 100 100 100 100 95 100 95 70 64 63 64 64 62 58 61 54 46 42 33 26
10 10 12 13 9 12 15 16 14 14 15 15 17 23 27 29 47 85 100 100 100 100 100 100 100 100 100 100 96 92 81 76 75 81 88 77 65 61 63 74 54 46 38 29 24
13 10 11 14 13 15 14 15 15 16 14 14 15 18 23 31 44 70 100 100 100 100 100 100 100 100 96 80 91 80 86 93 98 90 92 79 76 67 72 60 46 37 30 24 24
13 14 17 16 14 15 13 15 15 14 17 16 19 25 30 30 33 46 70 98 100 100 100 99 100 100 93 99 78 99 94 91 98 96 96 92 79 70 64 47 40 33 25 24 21
17 26 32 19 17 16 16 17 16 16 17 22 29 26 22 24 29 42 70 88 97 100 100 100 100 100 99 76 100 90 85 100 90 87 83 83 67 73 50 38 34 28 25 21 18
26 26 25 25 17 18 19 19 20 19 24 25 26 23 21 27 47 64 82 98 95 100 100 97 96 96 100 99 96 94 96 92 98 94 80 78 81 51 38 35 32 28 23 18 18

GFSSW_250_rhum_144.txt.gz
RH
91 83 93 81 100 82 92 82 93 82 80 77 78 73 71 73 100 100 79 64 30 33 51 48 34 33 33 31 26 33 39 43 39 43 45 94 100 100 98 90 85 51 34 40 48
100 95 83 66 72 74 82 81 95 92 77 75 76 86 72 68 61 74 98 85 64 35 25 28 30 34 38 27 23 30 50 50 40 41 41 61 91 81 74 98 80 65 43 63 50
75 79 60 69 70 82 99 95 100 88 81 99 72 75 72 51 32 40 48 70 70 30 20 26 36 43 43 25 24 29 68 51 45 45 54 62 70 61 84 100 92 89 74 43 37
83 93 89 92 92 100 100 100 98 90 94 100 100 92 54 44 43 35 35 40 48 34 40 52 33 48 24 23 26 29 59 70 44 39 40 62 84 100 88 87 100 100 75 91 76
81 100 100 100 100 100 100 100 100 98 89 83 85 81 73 55 42 40 50 39 32 56 55 45 32 25 22 27 27 42 57 56 50 47 56 62 98 97 78 82 72 85 95 100 100
97 83 100 100 100 100 100 100 100 100 100 95 91 93 88 95 95 74 80 68 50 55 46 29 20 27 30 26 30 33 45 50 59 66 45 91 98 69 62 59 69 65 79 95 100
100 100 88 90 100 100 100 100 100 100 100 100 100 100 98 89 72 68 70 64 67 61 44 30 28 32 32 30 28 33 37 46 62 76 73 92 94 73 49 58 92 100 100 100 100
100 100 100 100 100 100 100 100 100 99 100 100 83 86 76 82 90 82 71 54 48 45 48 41 39 38 41 42 49 36 52 53 53 73 71 100 100 100 100 60 37 49 63 68 77
100 100 100 100 100 100 100 100 100 100 99 100 96 91 89 81 77 69 65 64 60 54 47 54 52 49 70 75 88 61 61 73 92 91 97 95 96 100 99 80 77 60 61 97 100
51 85 98 100 100 100 100 100 99 95 100 100 97 99 100 99 73 64 61 52 48 42 43 42 43 49 56 67 78 80 64 81 95 100 90 100 100 92 87 93 73 50 71 69 65
49 62 83 68 94 100 100 100 92 100 100 97 88 84 83 86 96 72 53 52 57 62 46 45 36 37 38 50 67 68 71 60 96 91 95 89 76 71 100 100 100 100 100 100 100
57 55 72 88 95 79 88 83 85 83 91 97 86 83 80 62 62 69 66 82 89 89 84 86 76 49 39 38 48 67 93 100 100 100 100 99 81 77 85 100 100 100 100 100 100
73 75 67 100 93 76 69 89 76 72 65 69 76 74 96 82 82 71 66 64 68 87 82 85 94 73 59 48 41 46 56 92 100 100 100 100 100 100 100 100 100 100 100 100 99
66 62 82 95 63 61 79 97 79 80 62 56 62 67 77 75 89 100 100 100 100 100 100 100 100 98 81 70 56 43 62 65 73 100 100 100 100 100 100 100 100 100 100 99 96
78 71 54 88 78 78 96 92 75 95 84 62 64 76 94 100 100 100 100 100 100 100 100 100 100 92 84 80 68 60 58 75 82 100 97 100 100 100 100 100 93 81 66 62 51
55 90 94 78 72 78 72 86 85 100 81 88 79 86 96 100 100 100 91 99 100 100 94 99 97 83 90 78 79 100 78 72 85 99 96 100 100 100 100 97 81 79 71 59 56
94 63 92 95 89 63 63 81 89 94 93 86 94 89 88 96 100 100 100 81 97 100 98 98 95 96 91 74 86 98 100 95 90 100 100 100 100 100 100 90 87 76 57 49 44
100 83 79 79 90 92 78 58 58 79 75 86 98 81 71 96 81 100 100 100 100 100 100 97 100 100 100 89 75 95 80 100 100 77 81 88 86 85 81 74 61 50 47 46 40
95 100 83 69 62 55 57 48 35 63 79 100 99 64 70 83 82 88 87 91 100 100 100 100 100 100 98 91 87 86 91 67 95 98 66 55 58 70 73 61 51 41 40 42 41
94 91 85 47 38 47 41 45 52 69 78 57 45 41 60 72 81 76 91 74 99 100 100 100 100 100 99 90 96 100 98 100 84 77 78 71 62 66 54 47 46 52 54 42 41
48 44 45 32 19 17 15 22 28 34 42 37 43 44 42 60 53 67 58 66 78 93 91 96 96 99 100 98 100 100 78 94 100 100 92 75 86 98 67 59 61 53 49 42 42
41 21 17 21 16 12 15 17 16 16 14 13 15 21 26 29 34 39 34 48 63 82 82 100 100 100 100 100 100 100 100 100 100 100 87 66 88 88 70 63 58 62 53 54 48
20 19 17 22 15 12 12 11 10 11 12 10 10 12 14 14 14 16 20 27 34 69 98 100 100 100 100 100 100 100 94 93 91 59 66 88 96 78 66 59 62 66 58 58 55
17 20 17 14 12 11 11 11 11 10 9 9 13 12 11 12 15 18 20 24 37 56 97 100 100 100 100 100 100 100 100 96 91 97 100 96 88 65 63 77 68 62 66 60 46
17 18 14 14 12 12 11 12 10 9 10 9 10 11 12 13 13 14 18 20 22 33 66 100 100 100 100 100 100 100 100 100 100 96 93 92 78 69 75 80 79 75 60 46 39
17 16 16 14 12 12 12 18 14 10 8 10 12 13 13 15 16 17 16 18 25 36 52 91 100 100 100 100 100 100 100 100 100 97 86 84 84 87 100 90 81 57 45 39 34
16 20 16 27 22 18 19 16 15 14 17 16 17 16 20 20 19 21 24 25 28 37 56 85 96 97 100 100 100 100 100 100 100 100 88 83 97 100 93 76 55 46 39 35 31